Regional Weather Roundup
Issued by NWS

Home | Current Version | Previous Version | Text Only | Print | Product List | Glossary On
Versions: 1 2 3 4 5 6 7 8 9 10 11 12 13 14 15 16 17 18 19 20 21 22 23 24 25 26 27 28 29 30 31 32 33 34 35 36 37 38 39 40 41 42 43 44 45 46 47 48 49 50
000
ASUS44 KLIX 281712
RWRLA
LOUISIANA WEATHER ROUNDUP
NATIONAL WEATHER SERVICE NEW ORLEANS LA
1200 PM CDT SAT MAY 28 2016

NOTE: "FAIR" INDICATES FEW OR NO CLOUDS BELOW 12,000 FEET WITH NO
      SIGNIFICANT WEATHER AND/OR OBSTRUCTIONS TO VISIBILITY.
      SKY/WX - SKY CONDITION AND SIGNIFICANT WEATHER.
      TMP - AIR TEMPERATURE.    DP   - DEWPOINT TEMPERATURE.
      RH  - RELATIVE HUMIDITY.  PRES - PRESSURE.
      HX  - HEAT INDEX.         WCI  - WIND CHILL INDEX.

*  THESE STATIONS ARE NOT NWS OR FAA STATIONS AND ARE NOT UNDER
   NWS QUALITY CONTROL.

LAZ040-048-061>063-065-066-069-281800-
SOUTHEAST LOUISIANA

CITY           SKY/WX    TMP DP  RH WIND       PRES   REMARKS
N.O. AUDUBON   NOT AVBL
N.O. INTL ARPT PTSUNNY   85  71  63 S9        30.03R
N.O. LAKEFRONT CLOUDY    84  71  65 SE10G23   30.03R
N.O. DOWNTOWN* FAIR      84  71  65 SE8       30.04R
RESERVE*       CLOUDY    84  72  68 E6        30.03R
SLIDELL        CLOUDY    81  72  74 SE5       30.04R
BATON ROUGE    CLOUDY    83  66  56 E7        30.04R
BOOTHVILLE     CLOUDY    82  73  74 SE9       30.02R
BELLE CHASSE   CLOUDY    82  72  71 SE9       30.03R
BOGALUSA*      CLOUDY    82  69  65 SE3       30.07R
GALLIANO*      CLOUDY    84  68  58 SE5       30.02R
NEW ROADS*     FAIR      80  67  66 SE6       30.04R
GONZALES*      PTSUNNY   83  68  60 E3        30.02R
HAMMOND*       CLOUDY    82  68  61 SE6       30.04R
HOUMA*         NOT AVBL
PORT FOURCHON* SUNNY     82  72  69 SE8G15    30.01R

$$

LAZ041-044-053-054-281800-
SOUTHWEST LOUISIANA

CITY           SKY/WX    TMP DP  RH WIND       PRES   REMARKS
LAKE CHARLES   SUNNY     84  69  60 E3        29.99S
LAFAYETTE      SUNNY     83  66  56 VRB3      30.02R
PATTERSON      CLOUDY    83  71  67 VRB5      30.03R
SALT POINT       N/A     83  72  69 SE7       30.01R
NEW IBERIA     SUNNY     83  69  62 E6        30.02S
CHENAULT AIRPK SUNNY     88  70  55 E8        30.02R

$$

LAZ027-028-281800-
CENTRAL LOUISIANA

CITY           SKY/WX    TMP DP  RH WIND       PRES   REMARKS
FORT POLK      PTSUNNY   82  70  65 VRB3      30.00R
ALEXANDRIA INT SUNNY     80  67  64 CALM      29.99R
ALEXANDRIA     SUNNY     84  67  56 VRB5      30.01S

$$

LAZ001-002-281800-
NORTHWEST LOUISIANA

CITY           SKY/WX    TMP DP  RH WIND       PRES   REMARKS
SHREVEPORT     MOSUNNY   81  68  64 VRB3      29.98R
BARKSDALE AFB  SUNNY     81  67  62 SW7       29.99R
DTN SHREVEPORT MOSUNNY   79  68  69 VRB3      29.99R

$$

LAZ014-016-281800-
NORTHEAST LOUISIANA

CITY           SKY/WX    TMP DP  RH WIND       PRES   REMARKS
MONROE         CLOUDY    77  67  71 MISG      30.02R
TALLULAH       CLOUDY    82  69  64 VRB7      30.02R

$$




USA.gov is the U.S. government's official web portal to all federal, state and local government web resources and services.